This is the latest recevied weather packets stored in our database for station/object K4HOG. If no packets are shown the sender has not sent any weather packets the latest 10 day(s).
| Time | Temp. | Humidity | Pressure | Rain* | Wind** | Luminosity | Snow |
|---|---|---|---|---|---|---|---|
| 1777931786 | 28.33° C | 39% | 1013.9 hPa | 0 mm | - | 309 W/m² | - |
| 1777931484 | 28.33° C | 39% | 1013.6 hPa | 0 mm | - | 335 W/m² | - |
| 1777931180 | 28.89° C | 37% | 1013.8 hPa | 0 mm | - | 356 W/m² | - |
| 1777930876 | 28.89° C | 36% | 1013.9 hPa | 0 mm | - | 370 W/m² | - |
| 1777930573 | 28.33° C | 37% | 1013.7 hPa | 0 mm | - | 378 W/m² | - |
| 1777930270 | 28.89° C | 36% | 1013.8 hPa | 0 mm | - | 406 W/m² | - |
| 1777929966 | 28.33° C | 39% | 1013.9 hPa | 0 mm | - | 422 W/m² | - |
| 1777929663 | 28.33° C | 38% | 1014 hPa | 0 mm | - | 438 W/m² | - |
| 1777929360 | 28.89° C | 36% | 1013.9 hPa | 0 mm | - | 458 W/m² | - |
| 1777929057 | 28.89° C | 37% | 1014.1 hPa | 0 mm | - | 463 W/m² | - |
| 1777928754 | 28.89° C | 36% | 1014.1 hPa | 0 mm | - | 497 W/m² | - |
| 1777928451 | 28.89° C | 40% | 1014.2 hPa | 0 mm | - | 513 W/m² | - |
| 1777928148 | 28.89° C | 39% | 1013.9 hPa | 0 mm | - | 529 W/m² | - |
| 1777927846 | 29.44° C | 39% | 1014.1 hPa | 0 mm | - | 557 W/m² | - |
| 1777927544 | 29.44° C | 34% | 1014.2 hPa | 0 mm | - | 592 W/m² | - |
| 1777927243 | 28.89° C | 35% | 1014.1 hPa | 0 mm | - | 592 W/m² | - |
| 1777926941 | 28.33° C | 36% | 1014.3 hPa | 0 mm | - | 606 W/m² | - |
| 1777926638 | 28.89° C | 36% | 1014.4 hPa | 0 mm | - | 134 W/m² | - |
| 1777926333 | 29.44° C | 36% | 1014.2 hPa | 0 mm | - | 666 W/m² | - |
| 1777926030 | 29.44° C | 34% | 1014.2 hPa | 0 mm | - | 642 W/m² | - |
| 1777925727 | 29.44° C | 34% | 1014.3 hPa | 0 mm | - | 616 W/m² | - |
| 1777925425 | 30° C | 32% | 1014.4 hPa | 0 mm | - | 662 W/m² | - |
| 1777925121 | 29.44° C | 35% | 1014.3 hPa | 0 mm | - | 668 W/m² | - |
| 1777924818 | 28.89° C | 32% | 1014.4 hPa | 0 mm | - | 657 W/m² | - |
| 1777924514 | 28.89° C | 34% | 1014.5 hPa | 0 mm | - | 700 W/m² | - |
* Rain latest hour (hover to see other rain measurements)
** Current wind speed in m/s (hover to see current wind gust speed)